| time (UTC) | temp C | wind direction | speed KPH | gust KPH | rain 1hr cm | rain 24hr cm | rain mn cm | humidity % | barometer mb |
| 20260503203115 | 28 | 55 | 11.3 | 25.7 | 0.00 | 0.00 | 0.00 | 29 | 1012.7 |
| 20260503201643 | 28 | 78 | 8.0 | 19.3 | 0.00 | 0.00 | 0.00 | 28 | 1012.9 |
| 20260503200036 | 28 | 89 | 6.4 | 16.1 | 0.00 | 0.00 | 0.00 | 28 | 1013.1 |
| 20260503194530 | 27 | 106 | 4.8 | 12.9 | 0.00 | 0.00 | 0.00 | 29 | 1013.3 |
| 20260503193032 | 27 | 104 | 6.4 | 17.7 | 0.00 | 0.00 | 0.00 | 29 | 1013.3 |
| 20260503191535 | 27 | 73 | 9.7 | 19.3 | 0.00 | 0.00 | 0.00 | 30 | 1013.4 |
| 20260503190034 | 27 | 87 | 8.0 | 16.1 | 0.00 | 0.00 | 0.00 | 32 | 1013.5 |
| 20260503184535 | 26 | 79 | 1.6 | 12.9 | 0.00 | 0.00 | 0.00 | 37 | 1013.7 |
| 20260503183034 | 25 | 315 | 3.2 | 11.3 | 0.00 | 0.00 | 0.00 | 42 | 1013.8 |
| 20260503181535 | 24 | 333 | 4.8 | 11.3 | 0.00 | 0.00 | 0.00 | 44 | 1013.9 |
| 20260503180036 | 24 | 334 | 3.2 | 9.7 | 0.00 | 0.00 | 0.00 | 45 | 1014.1 |
| 20260503173037 | 23 | 262 | 1.6 | 6.4 | 0.00 | 0.00 | 0.00 | 45 | 1014.4 |
| 20260503171535 | 22 | 309 | 0.0 | 6.4 | 0.00 | 0.00 | 0.00 | 46 | 1014.5 |
| 20260503110107 | 8 | 164 | 3.2 | 6.4 | 0.00 | 0.00 | 0.00 | 85 | 1014.9 |
| 20260503081534 | 10 | 102 | 0.0 | 4.8 | 0.00 | 0.00 | 0.00 | 82 | 1014.9 |
| 20260503071532 | 11 | 185 | 3.2 | 6.4 | 0.00 | 0.00 | 0.00 | 83 | 1014.9 |
| 20260503054605 | 13 | 185 | 4.8 | 9.7 | 0.00 | 0.00 | 0.00 | 79 | 1014.6 |
| 20260503053036 | 13 | 153 | 4.8 | 8.0 | 0.00 | 0.00 | 0.00 | 77 | 1014.5 |
| 20260503051536 | 13 | 112 | 0.0 | 3.2 | 0.00 | 0.00 | 0.00 | 75 | 1014.5 |
| 20260503050035 | 14 | 159 | 4.8 | 6.4 | 0.00 | 0.00 | 0.00 | 74 | 1014.5 |
| 20260503044535 | 14 | 190 | 1.6 | 6.4 | 0.00 | 0.00 | 0.00 | 73 | 1014.5 |
| 20260503043037 | 15 | 186 | 0.0 | 4.8 | 0.00 | 0.00 | 0.00 | 70 | 1014.4 |
| 20260503041536 | 16 | 198 | 1.6 | 6.4 | 0.00 | 0.00 | 0.00 | 68 | 1014.2 |
| 20260503040040 | 17 | 3 | 0.0 | 4.8 | 0.00 | 0.00 | 0.00 | 64 | 1014.0 |
| 20260503034533 | 17 | 95 | 0.0 | 3.2 | 0.00 | 0.00 | 0.00 | 60 | 1013.8 |
| 20260503033036 | 18 | 155 | 4.8 | 8.0 | 0.00 | 0.00 | 0.00 | 61 | 1013.5 |
| 20260503031643 | 18 | 164 | 3.2 | 8.0 | 0.00 | 0.00 | 0.00 | 64 | 1013.2 |
| 20260503030045 | 19 | 162 | 4.8 | 6.4 | 0.00 | 0.00 | 0.00 | 65 | 1012.9 |
| 20260503024610 | 20 | 157 | 3.2 | 6.4 | 0.00 | 0.00 | 0.00 | 63 | 1012.7 |
| 20260503023036 | 20 | 157 | 0.0 | 1.6 | 0.00 | 0.00 | 0.00 | 59 | 1012.6 |
| 20260503021534 | 21 | 165 | 1.6 | 4.8 | 0.00 | 0.00 | 0.00 | 57 | 1012.5 |
| 20260503013036 | 24 | 85 | 1.6 | 8.0 | 0.00 | 0.00 | 0.00 | 38 | 1012.5 |
| 20260503011534 | 25 | 93 | 3.2 | 11.3 | 0.00 | 0.00 | 0.00 | 38 | 1012.5 |
| 20260503010032 | 25 | 110 | 0.0 | 11.3 | 0.00 | 0.00 | 0.00 | 37 | 1012.5 |
| 20260503004535 | 25 | 86 | 1.6 | 6.4 | 0.00 | 0.00 | 0.00 | 35 | 1012.5 |
| 20260503003033 | 25 | 101 | 3.2 | 11.3 | 0.00 | 0.00 | 0.00 | 36 | 1012.4 |
| 20260503001641 | 25 | 57 | 4.8 | 16.1 | 0.00 | 0.00 | 0.00 | 36 | 1012.5 |
| 20260502234537 | 26 | 52 | 6.4 | 16.1 | 0.00 | 0.00 | 0.00 | 37 | 1012.7 |
| 20260502231536 | 26 | 43 | 12.9 | 25.7 | 0.00 | 0.00 | 0.00 | 35 | 1013.2 |
| 20260502223108 | 26 | 101 | 9.7 | 19.3 | 0.00 | 0.00 | 0.00 | 33 | 1013.3 |
| 20260502221533 | 25 | 71 | 8.0 | 22.5 | 0.00 | 0.00 | 0.00 | 38 | 1013.5 |
| 20260502214536 | 24 | 315 | 4.8 | 20.9 | 0.00 | 0.00 | 0.00 | 45 | 1013.8 |
| 20260502213035 | 23 | 292 | 3.2 | 9.7 | 0.00 | 0.00 | 0.00 | 48 | 1014.0 |
| 20260502211535 | 23 | 323 | 4.8 | 11.3 | 0.00 | 0.00 | 0.00 | 52 | 1014.2 |
| 20260502204534 | 21 | 304 | 3.2 | 9.7 | 0.00 | 0.00 | 0.00 | 56 | 1014.5 |